Regional Weather Roundup
Issued by NWS Little Rock, AR

Home | Current Version | Previous Version | Graphics & Text | Print | Product List | Glossary On
Versions: 1 2 3 4 5 6 7 8 9 10 11 12 13 14 15 16 17 18 19 20 21 22 23 24 25 26 27 28 29 30 31 32 33 34 35 36 37 38 39 40 41 42 43 44 45 46 47 48 49
000
ASUS44 KLZK 290005
RWRLZK

WEATHER ROUNDUP FOR ARKANSAS
NATIONAL WEATHER SERVICE LITTLE ROCK AR
600 PM CST SUN DEC 28 2014

NOTE: "FAIR" INDICATES FEW OR NO CLOUDS BELOW 12,000 FEET WITH NO
SIGNIFICANT WEATHER AND/OR OBSTRUCTIONS TO VISIBILITY.

ARZ001-003-010-029-290100-
NORTHWEST ARKANSAS

CITY           SKY/WX    TMP DP  RH WIND       PRES   REMARKS
FAYETTEVILLE   CLEAR     29  27  92 CALM      30.14S
6HR MIN TEMP:  29; 6HR MAX TEMP:  40;

FORT SMITH     CLEAR     38  26  62 SE3       30.16F
6HR MIN TEMP:  37; 6HR MAX TEMP:  43;

HARRISON       CLEAR     33  24  69 E5        30.15R WCI  29
6HR MIN TEMP:  32; 6HR MAX TEMP:  39;

BENTONVILLE    CLEAR     36  25  64 E3        30.14S
6HR MIN TEMP:  32; 6HR MAX TEMP:  39;

ROGERS         CLEAR     34  24  67 SE3       30.15R
6HR MIN TEMP:  32; 6HR MAX TEMP:  41;

SILOAM SPGS    CLEAR     36  21  55 CALM      30.15S
6HR MIN TEMP:  32; 6HR MAX TEMP:  39;

HIGHFILL       CLEAR     34  23  64 SE3       30.13R
6HR MIN TEMP:  32; 6HR MAX TEMP:  41;

SPRINGDALE     CLEAR     34  25  69 CALM      30.16R
$$

ARZ004-005-016-290100-
NORTH CENTRAL ARKANSAS

CITY           SKY/WX    TMP DP  RH WIND       PRES   REMARKS
BATESVILLE     CLOUDY    36  28  75 CALM      30.20R
6HR MIN TEMP:  36; 6HR MAX TEMP:  37;

FLIPPIN        CLEAR     32  23  69 CALM      30.18R
6HR MIN TEMP:  32; 6HR MAX TEMP:  37;

MTN HOME       CLEAR     31  25  78 CALM      30.17R
6HR MIN TEMP:  31; 6HR MAX TEMP:  37;

$$

ARZ040-041-290100-
WEST CENTRAL ARKANSAS

CITY           SKY/WX    TMP DP  RH WIND       PRES   REMARKS
MENA           CLEAR     36  32  87 CALM      30.14S
MOUNT IDA      PTCLDY    35  31  85 CALM      30.14S
6HR MIN TEMP:  35; 6HR MAX TEMP:  41;

$$

ARZ009-017-025-026-028-290100-
NORTHEAST ARKANSAS

CITY           SKY/WX    TMP DP  RH WIND       PRES   REMARKS
CORNING        CLOUDY    36  32  87 NE7       30.22S
JONESBORO      CLOUDY    37  32  82 NE6       30.20F
6HR MIN TEMP:  37; 6HR MAX TEMP:  38;

NEWPORT        CLOUDY    37  33  85 N6        30.22R
6HR MIN TEMP:  37; 6HR MAX TEMP:  38;

WALNUT RIDGE   CLOUDY    36  28  75 NE6       30.20S
6HR MIN TEMP:  36; 6HR MAX TEMP:  37;

BLYTHEVILLE    CLOUDY    37  34  89 N10       30.21S
6HR MIN TEMP:  37; 6HR MAX TEMP:  39;

$$

ARZ022-023-033-042-044-290100-
CENTRAL ARKANSAS

CITY           SKY/WX    TMP DP  RH WIND       PRES   REMARKS
LITTLE ROCK    CLOUDY    40  31  70 NE5       30.20R
6HR MIN TEMP:  39; 6HR MAX TEMP:  41;

N LITTLE ROCK  MOCLDY    37  34  88 NE3       30.20R
6HR MIN TEMP:  36; 6HR MAX TEMP:  38;

JACKSONVILLE   CLOUDY    38  32  81 NE5       30.18F
6HR MIN TEMP:  38; 6HR MAX TEMP:  39;

SEARCY         CLOUDY    38  32  79 N5        30.22S
6HR MIN TEMP:  38; 6HR MAX TEMP:  39;

HOT SPRINGS    CLOUDY    40  32  73 E3        30.17F
6HR MIN TEMP:  39; 6HR MAX TEMP:  42;

RUSSELLVILLE   PTCLDY    33  30  88 CALM      30.18R
6HR MIN TEMP:  33; 6HR MAX TEMP:  41;

CLINTON        FAIR      32  32 100 CALM      30.21S
$$

ARZ036-290100-
EAST ARKANSAS

CITY           SKY/WX    TMP DP  RH WIND       PRES   REMARKS
WEST MEMPHIS   CLOUDY    38  36  92 NE10      30.18S
6HR MIN TEMP:  38; 6HR MAX TEMP:  40; 6HR PCP: TRACE;

$$

ARZ050-053-066-070-073-290100-
SOUTHWEST ARKANSAS

CITY           SKY/WX    TMP DP  RH WIND       PRES   REMARKS
ARKADELPHIA    CLOUDY    41  38  89 NE3       30.20R
6HR MIN TEMP:  41; 6HR MAX TEMP:  42;

CAMDEN         LGT RAIN  41  37  87 MISG      30.19R
TEXARKANA      MOCLDY    41  38  89 CALM      30.17S
6HR MIN TEMP:  41; 6HR MAX TEMP:  43; 6HR PCP: TRACE;

EL DORADO      LGT RAIN  42  40  92 NE3       30.17S
6HR MIN TEMP:  41; 6HR MAX TEMP:  43; 6HR PCP: TRACE;

DE QUEEN       CLOUDY    42  36  79 S3        30.16R
6HR MIN TEMP:  42; 6HR MAX TEMP:  44;

$$

ARZ056-057-069-290100-
SOUTHEAST ARKANSAS

CITY           SKY/WX    TMP DP  RH WIND       PRES   REMARKS
PINE BLUFF     CLOUDY    39  34  82 N8        30.19R
6HR MIN TEMP:  39; 6HR MAX TEMP:  40; 6HR PCP: TRACE;

STUTTGART      CLOUDY    39  34  81 N8        30.19S
6HR MIN TEMP:  37; 6HR MAX TEMP:  39;

MONTICELLO     LGT RAIN  40  38  93 VRB3      30.17S
6HR MIN TEMP:  40; 6HR MAX TEMP:  42; 6HR PCP:  0.05;


$$





USA.gov is the U.S. government's official web portal to all federal, state and local government web resources and services.